Retour au catalogue

STARLINK-35475

ActifCommunicationsVLEO
NORAD 65865·PAYLOAD·🇺🇸 United States

Lancé Oct 3, 2025 depuis Vandenberg Space Force Base

Loading…

Prochains Passages (prochaines 24 heures)

TLE

FraisSource: CelesTrak SupGP

Époque: Sep 14, 2026, 23:10 UTC

1 65865C 25223M   26257.96576389  .00017810  00000+0  52540-3 0  2571
2 65865  53.1560 131.3726 0001444  95.1566 347.1757 15.34429591    18

Suivez STARLINK-35475 en temps réel avec AllMySat

Download on the App Store